COSMOS 1082

Satellite information

Favourite Embed

Satellite Type and Status

PAYLOADIN ORBIT

Key statistics

Satellite COSMOS 1082 at a glance.

Uptime

16918

Days in orbit

Revolutions

≈ 12.5

Per day

Orbit

LEO

Low Earth Orbit

Inclination

74.0

Latest

Satellite identification and parameters

Extended collection of information and parameters for COSMOS 1082.

Object identification

Identified? True

Debris? False

Object name: COSMOS 1082

International designator: 1979-024B

Object number (NORAD): 11297

Object ID (CCSDS): 11297

Country: COMMONWEALTH OF INDEPENDENT STATES (CIS)

Current information (Y/N): Y

RCS size: MEDIUM

Orbital parameters

Period: 114.745 minutes

Inclination: 74.0319 deg

SMA: 7821.965 km

Apoapsis: 1464.907 km

Periapsis: 1422.753 km

RAAN: 228.7738 deg

Eccentricy: 0.0026946

Argument of periapsis: 354.9787 deg

Mean anomaly: 114.4997 deg

Mean motion: 12.54957425 rev/day

Mean motion (dot): 0.00000006 rev/day2

B* drag term: 0.00013764 1/REarth

Two-line elements (TLE)

Creation date: July 7, 2025, 6:34 p.m.

Reference frame: TEME

Reference center: EARTH

Epoch: July 7, 2025, 1:01 p.m. UTC

TLE line 0: 0 COSMOS 1082

TLE line 1: 1 11297U 79024B 25188.54280674 .00000006 00000-0 13764-3 0 9992

TLE line 2: 2 11297 74.0319 228.7738 0026946 354.9787 114.4997 12.54957425721530

Live tracking on map

Real-time ground track for satellite COSMOS 1082.

In-orbit conjunctions

There are no conjunctions computed for COSMOS 1082, at the moment. Check back to stay up to date, as we update our databases every day.

Go to all conjunctions

Associated space launch

Military communications satellites

COSMOS 1082 was lifted into orbit during the mission ‘Kosmos-3M | Strela-1M 169-176’, on board a Kosmos-3M space rocket.

The launch took place on March 15, 1979, 2:58 a.m. from 132/2.

For more information about the launch, click the button.

Launch to space Kosmos-3M | Strela-1M 169-176
Kosmos-3M | Strela-1M 169-176

Agency: N/A

Status: Launch Successful

Launch date: March 15, 1979, 2:58 a.m. UTC

Rocket: Kosmos-3M

Launch pad: 132/2

Location: Plesetsk Cosmodrome, Russian Federation

...

Latest news about this satellite

There are no fresh news available about this satellite. Check back as we update our databases every day.


Newsletter sign-up

Weekly statistics, charts and insights to help you stay on top of the space industry.